Greenville Downtown, SC

8:48 PM EDT on May 23, 2018 (GMT -0400)
Greenville Downtown

Weather History for KGMU - March, 2014

Change the Weather History Date:

Tuesday, March 25, 2014

  Actual Average Record
Temperature  
Mean Temperature 42 °F -  
Max Temperature 51 °F 64 °F 87 °F (2007)
Min Temperature 35 °F 44 °F 28 °F (2008)
Degree Days  
Heating Degree Days 23    
Moisture  
Dew Point 28 °F    
Average Humidity 63    
Maximum Humidity 89    
Minimum Humidity 27    
Precipitation  
Precipitation 0.16 in - - ()
Sea Level Pressure  
Sea Level Pressure 29.94 in    
Wind  
Wind Speed 6 mph (NNW)    
Max Wind Speed 21 mph    
Max Gust Speed 33 mph    
Visibility 9 miles    
Events Rain    
Averages and records for this station are not official NWS values.
T = Trace of Precipitation, MM = Missing Value Source: NWS Daily Summary

Daily Weather History Graph

Daily Weather History Graph

Search for Another Location

Airport or City:

Astronomy

Mar. 25, 2014 Rise Set
Actual Time 7:26 AM EDT 7:45 PM EDT
Civil Twilight 7:00 AM EDT 8:10 PM EDT
Nautical Twilight 6:31 AM EDT 8:40 PM EDT
Astronomical Twilight 6:01 AM EDT 9:10 PM EDT
Moon 3:34 AM EDT (3/25) 2:25 PM EDT (3/25)
Length of Visible Light 13h 09m
Length of Day
12h 19m
Waning Crescent, 32% of the Moon is Illuminated
Mar 25
Waning Crescent
Mar 30
New
Apr 7
First Quarter
Apr 15
Full
Apr 22
Last Quarter

Hourly Weather History & Observations

Time (EDT) Temp. Windchill Dew Point Humidity Pressure Visibility Wind Dir Wind Speed Gust Speed Precip Events Conditions
12:53 AM 46.0 °F 43.9 °F 24.1 °F 42% 30.02 in 10.0 mi ESE 4.6 mph - N/A   Overcast
1:53 AM 44.1 °F 41.5 °F 25.0 °F 47% 29.99 in 10.0 mi SE 4.6 mph - N/A   Overcast
2:53 AM 43.0 °F 41.3 °F 26.1 °F 51% 29.97 in 10.0 mi SE 3.5 mph - N/A   Overcast
3:53 AM 43.0 °F 40.3 °F 30.0 °F 60% 29.95 in 10.0 mi SSE 4.6 mph - N/A   Overcast
4:53 AM 42.1 °F 39.2 °F 30.9 °F 65% 29.91 in 10.0 mi SSW 4.6 mph - N/A   Overcast
5:53 AM 41.0 °F 35.8 °F 33.1 °F 73% 29.94 in 7.0 mi WSW 8.1 mph - 0.01 in Rain Rain
6:53 AM 39.9 °F - 36.0 °F 86% 29.92 in 5.0 mi Calm Calm - 0.07 in Rain Rain
7:16 AM 39.9 °F 35.8 °F 35.1 °F 83% 29.92 in 10.0 mi NNW 5.8 mph - 0.00 in   Overcast
7:24 AM 39.9 °F 37.8 °F 36.0 °F 86% 29.93 in 8.0 mi NNW 3.5 mph - 0.00 in Rain Light Rain
7:53 AM 39.0 °F 34.8 °F 35.1 °F 86% 29.92 in 6.0 mi NNE 5.8 mph - 0.07 in Rain Light Rain
8:18 AM 39.0 °F 34.0 °F 35.1 °F 86% 29.91 in 9.0 mi ENE 6.9 mph - 0.00 in   Overcast
8:45 AM 39.0 °F 34.0 °F 36.0 °F 89% 29.90 in 8.0 mi East 6.9 mph - 0.00 in   Overcast
8:53 AM 39.0 °F 34.8 °F 35.1 °F 86% 29.92 in 8.0 mi East 5.8 mph - 0.00 in   Overcast
9:13 AM 39.9 °F 36.7 °F 36.0 °F 86% 29.91 in 7.0 mi ENE 4.6 mph - N/A   Overcast
9:53 AM 41.0 °F 38.0 °F 37.0 °F 86% 29.91 in 8.0 mi ENE 4.6 mph - N/A   Overcast
10:53 AM 41.0 °F 39.0 °F 37.0 °F 86% 29.89 in 10.0 mi ENE 3.5 mph - N/A   Overcast
11:53 AM 42.1 °F 40.2 °F 37.0 °F 82% 29.88 in 9.0 mi NNW 3.5 mph - N/A   Overcast
12:53 PM 43.0 °F 40.3 °F 37.9 °F 82% 29.87 in 9.0 mi West 4.6 mph - 0.00 in Rain Light Rain
1:06 PM 45.0 °F 42.6 °F 39.0 °F 80% 29.86 in 9.0 mi WNW 4.6 mph - 0.00 in Rain Light Rain
1:53 PM 45.0 °F 40.1 °F 34.0 °F 65% 29.86 in 8.0 mi WNW 9.2 mph 18.4 mph 0.01 in Rain Rain
2:53 PM 48.9 °F - 19.9 °F 32% 29.85 in 10.0 mi WNW 20.7 mph 29.9 mph 0.00 in   Mostly Cloudy
3:53 PM 48.9 °F - 16.0 °F 27% 29.85 in 10.0 mi WNW 17.3 mph 26.5 mph N/A   Scattered Clouds
4:53 PM 48.0 °F - 17.1 °F 29% 29.88 in 10.0 mi WNW 19.6 mph 31.1 mph N/A   Overcast
5:53 PM 46.9 °F - 19.0 °F 33% 29.91 in 10.0 mi West 18.4 mph 33.4 mph N/A   Mostly Cloudy
6:53 PM 43.0 °F 36.0 °F 18.0 °F 37% 29.96 in 10.0 mi NW 13.8 mph 25.3 mph N/A   Overcast
7:53 PM 39.9 °F 35.8 °F 19.0 °F 43% 29.99 in 10.0 mi NW 5.8 mph - N/A   Partly Cloudy
8:53 PM 37.9 °F 30.5 °F 18.0 °F 45% 30.03 in 10.0 mi WNW 11.5 mph 20.7 mph N/A   Clear
9:53 PM 37.0 °F 33.3 °F 19.0 °F 48% 30.06 in 10.0 mi Variable 4.6 mph - N/A   Overcast
10:53 PM 36.0 °F 29.6 °F 16.0 °F 44% 30.09 in 10.0 mi NNW 8.1 mph 18.4 mph N/A   Overcast
11:53 PM 35.1 °F 27.9 °F 10.9 °F 37% 30.10 in 10.0 mi NNW 9.2 mph - N/A   Clear